Погода в Эбяхе

Россия / Республика Саха (Якутия)     68°23′40″N   150°44′59″E
темп.,
°C
ветер,
м/с
пор.,
м/с
влажн.,
%
обл.,
%
осадки,
мм/ч
давл.,
гПа
погр.,
м
3 марта, ср
ср323:00−37ссз1110055 0.0 102719
02:00−37с1210094 0.0 102719
05:00−38с1110096 0.0 102619
08:00−39ссв1110082 0.0 102519
11:00−35св129590 0.0 102491
14:00−33всв2289100 0.0 1022285
17:00−32в3395100 0.1 1020281
20:00−33всв2298100 0.1 1019141
4 марта, чт
чт423:00−35ссв339999 0.2 101729
02:00−37с3310097 0.0 101620
05:00−36ссз469898 0.1 1013128
08:00−34сз6996100 0.1 1010324
11:00−32ссз81196100 0.3 1006413
14:00−30сз101393100 0.3 1003505
17:00−28ссз101391100 0.3 999719
20:00−25ссз101596100 0.4 997790
5 марта, пт
пт523:00−24ссз111696100 1.1 994751
02:00−24ссз101596100 0.9 994854
05:00−23ссз111596100 1.7 9941109
08:00−23ссз111595100 0.6 9951083
11:00−22с121594100 1.1 9961119
14:00−21с111492100 0.3 9981200
17:00−21с111495100 0.7 9991109
20:00−22с111595100 0.5 1002930
6 марта, сб
сб623:00−22с101596100 0.9 1004897
02:00−23ссз91396100 0.7 1006821
05:00−24ссз101588100 1.1 1007677
08:00−24ссз101589100 0.1 1008585
11:00−24ссз101488100 0.1 1009724
14:00−23ссз111494100 0.3 1010830
17:00−24ссз101594100 0.6 1010837
20:00−25ссз91495100 0.3 1011662
7 марта, вс
вс723:00−26сз81395100 0.5 1011602
02:00−27сз71393100 0.3 1011563
05:00−29ссз71191100 0.4 1013419
08:00−30ссз71096100 0.2 1015383
11:00−29ссз6893100 0.4 1016490
14:00−28ссз6793100 0.1 1017476
17:00−28ссз6893100 0.2 1018451
20:00−30сз4790100 0.0 1018199